When you browse on this site, cookies collect data to enhance your experience and personalize the content and advertising you see.
Visit our Privacy Policy to learn more. By continuing to use the site, you agree to this use of cookies and data.
  • In Latvia
  • List of Countries
  • For 7 days
  • Water Temperature
  • Weather Map
  • Weather Widgets
  • user-avatar
    Login

    Hourly Weather Roma

    Today, 21 January, Tuesday

    Time Temperature Precipitation Wind Pressure Humidity
    00:00 +19°C° 0.1 mm 2 mps 625 mmHg 69%
    01:00 +19°C° 0.1 mm 1 mps 625 mmHg 72%
    02:00 +19°C° 0.1 mm 1 mps 624 mmHg 74%
    03:00 +18°C° 0.1 mm 1 mps 624 mmHg 76%
    04:00 +18°C° 0.1 mm 1 mps 624 mmHg 77%
    05:00 +16°C° 0.1 mm 1 mps 624 mmHg 79%
    06:00 +18°C° 0.6 mm 1 mps 625 mmHg 76%
    07:00 +18°C° 0.6 mm 2 mps 625 mmHg 74%
    08:00 +19°C° 0.6 mm 2 mps 626 mmHg 72%
    09:00 +21°C° 0.4 mm 3 mps 626 mmHg 63%
    10:00 +24°C° 0.4 mm 3 mps 626 mmHg 54%
    11:00 +26°C° 0.4 mm 4 mps 627 mmHg 45%
    12:00 +26°C° 0.5 mm 6 mps 626 mmHg 46%
    13:00 +26°C° 0.5 mm 7 mps 625 mmHg 46%
    14:00 +26°C° 0.5 mm 9 mps 625 mmHg 47%
    15:00 +24°C° 0.9 mm 7 mps 624 mmHg 51%
    16:00 +23°C° 0.9 mm 5 mps 624 mmHg 54%
    17:00 +21°C° 0.9 mm 4 mps 624 mmHg 57%
    18:00 +20°C° 0 mm 3 mps 624 mmHg 61%
    19:00 +19°C° 0 mm 2 mps 623 mmHg 64%
    20:00 +18°C° 0 mm 2 mps 623 mmHg 68%
    21:00 +18°C° 0 mm 2 mps 623 mmHg 68%
    22:00 +18°C° 0 mm 2 mps 623 mmHg 68%
    23:00 +18°C° 0 mm 2 mps 623 mmHg 69%

    Tomorrow, 22 January, Wednesday

    Time Temperature Precipitation Wind Pressure Humidity
    00:00 +18°C° 0 mm 1 mps 623 mmHg 70%
    01:00 +18°C° 0 mm 1 mps 623 mmHg 71%
    02:00 +16°C° 0 mm 1 mps 622 mmHg 72%
    03:00 +16°C° 0 mm 1 mps 622 mmHg 75%
    04:00 +15°C° 0 mm 1 mps 622 mmHg 77%
    05:00 +15°C° 0 mm 2 mps 622 mmHg 80%
    06:00 +17°C° 0 mm 3 mps 623 mmHg 74%
    07:00 +19°C° 0 mm 4 mps 623 mmHg 69%
    08:00 +20°C° 0 mm 5 mps 624 mmHg 63%
    09:00 +22°C° 0 mm 5 mps 624 mmHg 56%
    10:00 +25°C° 0 mm 5 mps 624 mmHg 50%
    11:00 +27°C° 0 mm 5 mps 624 mmHg 43%
    12:00 +28°C° 0 mm 6 mps 624 mmHg 36%
    13:00 +29°C° 0 mm 7 mps 624 mmHg 29%
    14:00 +32°C° 0 mm 7 mps 624 mmHg 21%
    15:00 +31°C° 0 mm 8 mps 623 mmHg 20%
    16:00 +31°C° 0 mm 8 mps 623 mmHg 19%
    17:00 +31°C° 0 mm 8 mps 623 mmHg 17%
    18:00 +28°C° 0 mm 7 mps 622 mmHg 20%
    19:00 +26°C° 0 mm 6 mps 622 mmHg 23%
    20:00 +23°C° 0 mm 4 mps 622 mmHg 25%
    21:00 +22°C° 0 mm 3 mps 622 mmHg 27%
    22:00 +21°C° 0 mm 2 mps 622 mmHg 30%
    23:00 +22°C° 0 mm 1 mps 622 mmHg 32%

    Day after tomorrow, 23 January, Thursday

    Time Temperature Precipitation Wind Pressure Humidity
    00:00 +21°C° 0 mm 1 mps 622 mmHg 35%
    01:00 +20°C° 0 mm 1 mps 622 mmHg 38%
    02:00 +20°C° 0 mm 1 mps 622 mmHg 41%
    03:00 +19°C° 0 mm 1 mps 621 mmHg 46%
    04:00 +18°C° 0 mm 1 mps 621 mmHg 51%
    05:00 +16°C° 0 mm 1 mps 621 mmHg 56%
    06:00 +19°C° 0 mm 1 mps 622 mmHg 51%
    07:00 +20°C° 0 mm 2 mps 623 mmHg 47%
    08:00 +24°C° 0 mm 2 mps 624 mmHg 42%
    09:00 +25°C° 0 mm 2 mps 625 mmHg 37%
    10:00 +27°C° 0 mm 3 mps 625 mmHg 32%
    11:00 +28°C° 0 mm 4 mps 625 mmHg 27%
    12:00 +29°C° 0 mm 4 mps 625 mmHg 26%
    13:00 +29°C° 0 mm 5 mps 625 mmHg 25%
    14:00 +30°C° 0 mm 5 mps 625 mmHg 24%
    15:00 +29°C° 0 mm 5 mps 625 mmHg 25%
    16:00 +29°C° 0 mm 4 mps 624 mmHg 25%
    17:00 +29°C° 0 mm 3 mps 624 mmHg 25%
    18:00 +27°C° 0 mm 2 mps 624 mmHg 30%
    19:00 +24°C° 0 mm 1 mps 624 mmHg 34%
    20:00 +20°C° 0 mm 0 mps 624 mmHg 39%
    21:00 +22°C° 0 mm 1 mps 624 mmHg 45%
    22:00 +20°C° 0 mm 2 mps 624 mmHg 51%
    23:00 +20°C° 0 mm 3 mps 625 mmHg 56%

    24 January, Friday

    Time Temperature Precipitation Wind Pressure Humidity
    00:00 +19°C° 0.1 mm 3 mps 624 mmHg 62%
    01:00 +18°C° 0.1 mm 3 mps 624 mmHg 68%
    02:00 +17°C° 0.1 mm 3 mps 624 mmHg 73%
    03:00 +17°C° 0 mm 2 mps 624 mmHg 75%
    04:00 +17°C° 0 mm 2 mps 624 mmHg 76%
    05:00 +16°C° 0 mm 2 mps 624 mmHg 78%
    06:00 +18°C° 0.2 mm 3 mps 624 mmHg 73%
    07:00 +19°C° 0.2 mm 5 mps 625 mmHg 69%
    08:00 +21°C° 0.2 mm 6 mps 626 mmHg 65%
    09:00 +21°C° 1.2 mm 6 mps 626 mmHg 63%
    10:00 +22°C° 1.2 mm 5 mps 626 mmHg 60%
    11:00 +23°C° 1.2 mm 5 mps 626 mmHg 58%
    12:00 +21°C° 2.9 mm 5 mps 626 mmHg 68%
    13:00 +19°C° 2.9 mm 4 mps 625 mmHg 77%
    14:00 +18°C° 2.9 mm 4 mps 624 mmHg 86%
    15:00 +17°C° 2.2 mm 3 mps 624 mmHg 86%
    16:00 +17°C° 2.2 mm 2 mps 625 mmHg 86%
    17:00 +17°C° 2.2 mm 2 mps 625 mmHg 86%
    18:00 +18°C° 2 mm 1 mps 625 mmHg 88%
    19:00 +16°C° 2 mm 1 mps 625 mmHg 90%
    20:00 +16°C° 2 mm 1 mps 625 mmHg 91%
    21:00 +16°C° 0.9 mm 1 mps 625 mmHg 92%
    22:00 +16°C° 0.9 mm 2 mps 625 mmHg 92%
    23:00 +16°C° 0.9 mm 2 mps 625 mmHg 93%

    25 January, Saturday

    Time Temperature Precipitation Wind Pressure Humidity
    00:00 +16°C° 0.1 mm 2 mps 624 mmHg 92%
    01:00 +16°C° 0.1 mm 2 mps 624 mmHg 92%
    02:00 +16°C° 0.1 mm 2 mps 623 mmHg 91%
    03:00 +16°C° 0.1 mm 2 mps 623 mmHg 92%
    04:00 +16°C° 0.1 mm 2 mps 623 mmHg 92%
    05:00 +16°C° 0.1 mm 2 mps 623 mmHg 92%
    06:00 +16°C° 0.1 mm 2 mps 623 mmHg 90%
    07:00 +17°C° 0.1 mm 3 mps 624 mmHg 88%
    08:00 +17°C° 0.1 mm 4 mps 624 mmHg 86%
    09:00 +18°C° 0.6 mm 4 mps 624 mmHg 80%
    10:00 +19°C° 0.6 mm 4 mps 624 mmHg 74%
    11:00 +21°C° 0.6 mm 4 mps 624 mmHg 68%
    12:00 +22°C° 0.5 mm 4 mps 624 mmHg 62%
    13:00 +23°C° 0.5 mm 4 mps 624 mmHg 56%
    14:00 +25°C° 0.5 mm 3 mps 624 mmHg 50%
    15:00 +23°C° 0.3 mm 5 mps 624 mmHg 51%
    16:00 +23°C° 0.3 mm 6 mps 624 mmHg 52%
    17:00 +23°C° 0.3 mm 7 mps 624 mmHg 53%
    18:00 +20°C° 3 mm 6 mps 624 mmHg 64%
    19:00 +18°C° 3 mm 4 mps 623 mmHg 74%
    20:00 +16°C° 3 mm 2 mps 623 mmHg 84%
    21:00 +16°C° 1.1 mm 3 mps 624 mmHg 85%
    22:00 +16°C° 1.1 mm 3 mps 624 mmHg 85%
    23:00 +16°C° 1.1 mm 3 mps 624 mmHg 86%

    26 January, Sunday

    Time Temperature Precipitation Wind Pressure Humidity
    00:00 +16°C° 0 mm 2 mps 624 mmHg 84%
    01:00 +16°C° 0 mm 2 mps 623 mmHg 82%
    02:00 +16°C° 0 mm 1 mps 623 mmHg 80%
    03:00 +15°C° 0 mm 1 mps 623 mmHg 80%
    04:00 +15°C° 0 mm 2 mps 623 mmHg 79%
    05:00 +15°C° 0 mm 2 mps 623 mmHg 78%
    06:00 +17°C° 0 mm 2 mps 624 mmHg 75%
    07:00 +18°C° 0 mm 3 mps 624 mmHg 72%
    08:00 +20°C° 0 mm 4 mps 625 mmHg 70%
    09:00 +22°C° 0.2 mm 5 mps 625 mmHg 64%
    10:00 +23°C° 0.2 mm 6 mps 625 mmHg 58%
    11:00 +26°C° 0.2 mm 8 mps 626 mmHg 52%
    12:00 +27°C° 0 mm 7 mps 625 mmHg 48%
    13:00 +28°C° 0 mm 7 mps 625 mmHg 44%
    14:00 +28°C° 0 mm 7 mps 625 mmHg 40%
    15:00 +28°C° 0 mm 7 mps 625 mmHg 39%
    16:00 +28°C° 0 mm 6 mps 625 mmHg 39%
    17:00 +28°C° 0 mm 5 mps 625 mmHg 39%
    18:00 +26°C° 0.3 mm 4 mps 624 mmHg 52%
    19:00 +22°C° 0.3 mm 3 mps 624 mmHg 64%
    20:00 +19°C° 0.3 mm 2 mps 623 mmHg 77%
    21:00 +19°C° 0.4 mm 2 mps 624 mmHg 78%
    22:00 +19°C° 0.4 mm 2 mps 624 mmHg 79%
    23:00 +19°C° 0.4 mm 1 mps 624 mmHg 80%
    Show more